Aeroporto :
LOGIN :

Iscrizione | Disclaimer

   EN    FR    IT 

 










Sommario :    VFR   VFR Marginale   IFR   IFR Intensivo   IFR Molto Intensivo
Visibilità : 
Base nubi : 
>= 8 km
>= 3000ft
5 / 8 km
1000 / 3000 ft
1500m / 5 km
500 / 1000 ft
800 / 1500m
200 / 500 ft
< 800m
< 200 ft
Simboli :   Temporali  Nebbia  Neve Forte  Precipitazioni Forti  Vento > 20 kt
SIGMETs :   Varie  Temporali  Ghiacco  Turbolenza  Onda orograficha  Ceneri Vulcaniche







- Altitudine del aeroporto : 885 ft
- Codice IATA : BAS
- Carte del aeroporto


LFSB - Bale-Mulhouse

ULTIMO METAR :
  • 232200Z VRB02KT CAVOK 11/07 Q0998 NOSIG

METARs OBSOLETI :
  • 232130Z 00000KT CAVOK 12/08 Q0998 NOSIG
  • 232100Z 26002KT CAVOK 13/08 Q0998 NOSIG
  • 232030Z 24003KT CAVOK 13/08 Q0998 NOSIG
  • 232000Z 24004KT CAVOK 13/08 Q0998 NOSIG
  • 231930Z 25004KT CAVOK 14/08 Q0997 NOSIG

TAF AMD TAF LFSB
Valido dal 23 a 19 ore il 24 a 18 ore UTC


231952Z 2319/2418 22004KT CAVOK
BECMG 2408/2410 10010KT
BECMG 2410/2413 FEW065CB BKN120
TEMPO 2414/2418 28018G35KT SHRA SCT040CB
PROB40
TEMPO 2415/2418 29020G40KT 4000 TSRA BKN030CB
Met : +33 3 89 90 31 11
Nessun NOTAM noto per questo aeroporto.



MetMap, La meteo Aeronautica in un colpo d'occhio ! - Copyright ORBIFLY Dicembre 2007 - Disclaimer

ORBIFLY MET'MAP TEAM :

Programmazione e sviluppo : Alexandra Zaïnal
Concezione e sviluppo : Baudouin d'Aumeries
Co-Programmazione e sviluppo : Marc-Olivier Méhu
Supporto tecnico e logistico : Manuel Goepfert
Aiuto per la traduzione : Arnaldo La Scala

Contatto : metmap@orbifly.com




FONTI E CREDITI :

   NOAA